Regional Weather Roundup
Issued by NWS Wilmington, NC

Home | Current Version | Previous Version | Text Only | Print | Product List | Glossary On
Versions: 1 2 3 4 5 6 7 8 9 10 11 12 13 14 15 16 17 18 19 20 21 22 23 24 25 26 27 28
000
ASUS42 KILM 232113
RWRILM
RWRILM
REGIONAL HOURLY WEATHER ROUNDUP
NATIONAL WEATHER SERVICE WILMINGTON NC
400 PM EST THU NOV 23 2017

NOTE: "FAIR" INDICATES FEW OR NO CLOUDS BELOW 12,000 FEET WITH NO
SIGNIFICANT WEATHER AND/OR OBSTRUCTIONS TO VISIBILITY.

...............WFO WILMINGTON COUNTY WARNING AREA...............

......COASTAL NC AND SC COUNTIES......

CITY           SKY/WX    TMP DP  RH WIND       PRES   REMARKS
WILMINGTON     CLOUDY    49  39  68 N10       30.05S
N MYRTLE BEACH CLOUDY    49  39  68 N8        30.03S
MYRTLE BEACH   CLOUDY    48  40  73 N9        30.05R

......INLAND NC AND SC COUNTIES.......

CITY           SKY/WX    TMP DP  RH WIND       PRES   REMARKS
LUMBERTON      CLOUDY    48  34  58 NE7       30.05S
ELIZABETHTOWN  NOT AVBL
WHITEVILLE     CLOUDY    47  36  64 NE5       30.05R
FLORENCE       CLOUDY    49  35  58 NE7       30.05S
DARLINGTON     CLOUDY    49  35  58 VRB3      30.06S
KINGSTREE      FAIR      46  37  71 E6        30.02F
HARTSVILLE     FAIR      48  32  53 NE5       30.04S
BENNETTSVILLE  FAIR      52  34  50 CALM      30.04F
CONWAY         FAIR      46  37  71 NE6       30.04S HAZE
GEORGETOWN     FAIR      45  45 100 N8        30.03F
MARION         FAIR      46  36  66 N7        30.05S

....................REST OF NORTH CAROLINA......................

.........EASTERN NC.........

CITY           SKY/WX    TMP DP  RH WIND       PRES   REMARKS
CAPE HATTERAS  CLOUDY    50  42  74 NE8       30.05F
JACKSONVILLE   CLOUDY    47  38  71 N6        30.06S
MOREHEAD CITY  CLOUDY    49  42  77 N9        30.06R
KENANSVILLE    CLOUDY    46  36  66 NE3       30.07S
NEW BERN       MOCLDY    46  39  76 N8        30.08R
ELIZABETH CITY CLOUDY    46  36  68 NE6       30.07F

.........CENTRAL NC.........

CITY           SKY/WX    TMP DP  RH WIND       PRES   REMARKS
RALEIGH DURHAM CLOUDY    48  28  46 CALM      30.06F
ROCKY MOUNT    PTCLDY    47  31  53 CALM      30.07S
ROANOKE RAPIDS NOT AVBL
FAYETTEVILLE   CLOUDY    48  32  53 CALM      30.05F
HOFFMAN        CLOUDY    48  31  52 NE3       30.04F

.........WESTERN NC.........

CITY           SKY/WX    TMP DP  RH WIND       PRES   REMARKS
CHARLOTTE      MOSUNNY   56  27  32 CALM      30.03F
GREENSBORO     MOSUNNY   51  25  36 CALM      30.03S
HICKORY        NOT AVBL
BOONE          NOT AVBL
ASHEVILLE      NOT AVBL

.....................REST OF SOUTH CAROLINA.....................

.........EASTERN SC.........

CITY           SKY/WX    TMP DP  RH WIND       PRES   REMARKS
CHARLESTON     LGT RAIN  47  46  97 N12       29.99F
BEAUFORT MCAS  RAIN      49  49 100 N9        29.98R FOG
HILTON HEAD    RAIN      50  50 100 N12       29.97S

.........CENTRAL SC.........

CITY           SKY/WX    TMP DP  RH WIND       PRES   REMARKS
COLUMBIA       CLOUDY    56  38  50 N8        30.01F
ORANGEBURG     CLOUDY    48  38  68 NE7       30.02F
SUMTER SHAW    CLOUDY    49  35  58 NE5       30.01F

.........WESTERN SC.........

CITY           SKY/WX    TMP DP  RH WIND       PRES   REMARKS
GREENVILLE     NOT AVBL
ROCK HILL      SUNNY     56  29  35 CALM      30.03F
ANDERSON       SUNNY     56  32  40 E6        30.01F
CLEMSON        NOT AVBL
GREENWOOD      SUNNY     57  33  40 SE5       30.02F


...................COASTAL AND OFFSHORE REPORTS..................

................LOCAL PIERS AND NC RESERVE................


STATION/POSITION TIME  SKY/WX   TEMP    WIND        PRES    VSBY
                                AIR SEA DIR/SP/G
                 (UTC)          (F)     (DEG/KT/KT) (MB)    (MI)
JOHNY MRCER PIER 2048            49 62   20/ 10/ 12 1017.5R
NC RESRV MASNBRO 1945            51      30/  1     1017.0
OCEAN CREST PIER NOT AVBL
SPRINGMAID  PIER 2048                               1016.2R


................COASTAL AND OFFSHORE BUOYS................


STATION/POSITION TIME  SKY/WX   TEMP    WIND        PRES    VSBY
                                AIR SEA DIR/SP/G
                 (UTC)          (F)     (DEG/KT/KT) (MB)    (MI)
DIMNDSHOAL 41025 2100            55 72   10/ 17/ 19 1017.4
CAPE LOOKOUT     2100                    10/ 11/ 14 1017.8R
ONSLOW BAY 41036 NOT AVBL
ONSLOW BAY 41064 2008            55 67   60/ 14/ 19 1016.8F
ONSLOW BAY 41159 2100               67                N/A
WVE H/P(F/S)=  5/ 9 SWL H/P/D(F/S/D)=  2/100/11

MASNBO INL 41110 2059               63                N/A
WVE H/P(F/S)=  4/ 9

WILM HARBR 41108 2100               62                N/A
WVE H/P(F/S)=  4/ 9

27SE WRITB 41037 2008            56 70   40/ 17/ 25 1016.6F
FRYING PAN 41013 2100            59 71   30/ 19/ 25 1015.4
SUNST NRSH 41024 2008            50 60   40/  8/ 14 1016.7F
CAPRS NRSH 41029 2008            48 61   40/ 17/ 23 1014.9F
EDISTO     41004 2100            64 75   20/ 21/ 27 1013.5


..........OFFSHORE BUOYS BEYOND 100 NM OFFSHORE...........
.....IN A TRIANGLE---HAT TO BERMUDA TO BAHAMAS TO HAT.....


STATION/POSITION TIME  SKY/WX   TEMP    WIND        PRES    VSBY
                                AIR SEA DIR/SP/G
                 (UTC)          (F)     (DEG/KT/KT) (MB)    (MI)
150E HAT   41001 NOT AVBL
W BERMUDA  41048 2100            72 76   30/ 14/ 17 1012.8
ATLANTIC S 41049 2050            79 79  240/ 16/ 17 1012.1R
WVE H/P(F/S)=  7/ 8 SWL H/P/D(F/S/D)=  5/110/ 8

E BAHAMAS  41046 2100            80 82  200/  6/  8 1012.9
NE BAHAMAS 41047 2100            74 80   80/  4/  6 1012.8
120E CANVRL41010 NOT AVBL

END




USA.gov is the U.S. government's official web portal to all federal, state and local government web resources and services.